Tracking 19576 objects as of 17-Feb-2019
HD Live streaming from Space Station
objects crossing your sky now

OBJECT PN

Track OBJECT PN now!
10-day predictions


NORAD ID: 43638
Int'l Code: 1998-067PN
Perigee: 404.3 km
Apogee: 407.8 km
Inclination: 51.6 °
Period: 92.5 minutes
Semi major axis: 6777 km
RCS: Unknown
Launch date: November 20, 1998
Source: (TBD)
Launch site: TYURATAM MISSILE AND SPACE COMPLEX (TTMTR)
aabbcc
Your satellite tracking list
Your tracking list is empty




NASA's NSSDC Master Catalog

Two Line Element Set (TLE):
1 43638U 98067PN  19047.78888700 +.00005608 +00000-0 +85595-4 0  9996
2 43638 051.6373 238.4224 0002520 010.1629 349.9413 15.56113725020724
Source of the keplerian elements: AFSPC